STARLINK-30321, 57679

Orbit data source: Space-Track

STARLINK-30321, 57679 is a payload satellite owned by SpaceX/Seattle (US) in LEO that was launched on Tue, 22 Aug 2023 UTC via an FALCON 9 launch vehicle from the Air Force Western Test Range (AFWTR). Payload-class satellites include a variety of spacecraft equipped with specific instruments for various scientific and technological missions. These include communications satellites like Starlink; space stations such as the ISS; scientific satellites like the Hubble; Earth observation satellites from companies like Planet Labs, Umbra, and HawkEye 360; GPS; miniature CubeSats for education and research; and military/defense satellites.

Loading next visibility...
Identifier
57679, 2023-124S
Orbit
LEO
Country
Flag of USUS
Related business
Manufacturer
SpaceX/Seattle
Mission
Operational Commercial Communications
Bus & Motor
STARLINK V2M, Unknown motor
Mass
730 kg wet, ~700 kg dry
Launch date (UTC)
2023-08-22 (3 years ago)
Launch vehicle
FALCON 9
Launch site
Air Force Western Test Range (AFWTR)
Object type
Payload
Rocket body
Debris
Shape & HBR
Box + 2 Pan, 17.7 m
Radar Cross Section
33.884 m², Large (>1 m²)

Expand to show TLE details & history
Last TLE update: 3 days ago

TLE from 3 days ago
0 STARLINK-30321
1 57679U 23124S   26170.92403256  .00000534  00000-0  30167-4 0  9996
2 57679  53.1607  91.7232 0001212  83.3717 276.7421 15.30195166159222
Epoch: 2026-06-19T22:10Z
TLE epoch observation values (Epoch: 2026-06-19T22:10:36.413Z)
Latitude
-0.00006°
Longitude
-149.0746°
Altitude
476.032 km
Speed
7.629 km/s
True Right ascension
06h 06m 53s
True Declination
0° 00' 00"
Sunlit
Object was in daylight at epoch
Visualization orbit readout
Latitude
Unknown
Longitude
Unknown
Altitude
Unknown
Speed
Unknown
Apparent Right ascension
Unknown
Apparent Declination
Unknown
Sunlit
N/A
Visualization observer readout
Local Sidereal Time
21:27:00
Azimuth
Unknown
Elevation
Unknown
Doppler factor
Unknown
Orbital elements
Apogee altitude
476.316 km
Perigee altitude
474.655 km
Semi-major axis
6,853.623 km
Eccentricity
0.00012
Inclination
53.1607°
RAAN
91.7232°
Arg. of periapsis
83.3717°
True anomaly
276.72831°
Mean anomaly
276.7421°
Eccentric anomaly
276.7352°
Mean motion
3.82528 °/min
Orbital period
94.11 mins
BSTAR
0.000030167
Loading maneuver chart data...
Computing Atmospheric mass density...
Loading historical data...
Loading historical data...
Loading historical data...
Loading historical data...
Loading historical data...
Loading historical data...
Loading historical data...

Documentation

Showing up to 5 results
|